,,,PA_Meas_PMT16A,,PR_Meas_QMR101_102,,RH_Meas_QMH101,,SR_Meas_QMS101,,TA_Meas_QMH101,,GenWind,,GenWind,
date,time,status,PA,status,PR,status,RH,status,SR,status,TA,status,DirAvg,status,SpdAvg,
2012-04-26, 00:00:05,VALID,1001.32,VALID,0,VALID,95.5381,VALID,0,VALID,23.5256,VALID,170,VALID,0.920703,
2012-04-26, 00:01:05,VALID,1001.34,VALID,0,VALID,95.5534,VALID,0,VALID,23.5274,VALID,170,VALID,0.732813,
2012-04-26, 00:02:05,VALID,1001.36,VALID,0,VALID,95.5457,VALID,0,VALID,23.5061,VALID,170,VALID,0.676562,
2012-04-26, 00:03:05,VALID,1001.33,VALID,0,VALID,95.561,VALID,0,VALID,23.5061,VALID,170,VALID,0.523438,
2012-04-26, 00:04:05,VALID,1001.37,VALID,0,VALID,95.5762,VALID,0,VALID,23.5274,VALID,170,VALID,0.333984,
2012-04-26, 00:05:05,VALID,1001.36,VALID,0,VALID,95.5991,VALID,0,VALID,23.4884,VALID,170,VALID,0.348047,
2012-04-26, 00:06:05,VALID,1001.38,VALID,0,VALID,95.6068,VALID,0,VALID,23.4884,VALID,170,VALID,0.372266,
2012-04-26, 00:07:05,VALID,1001.39,VALID,0,VALID,95.6068,VALID,0,VALID,23.4458,VALID,170,VALID,0.317187,
2012-04-26, 00:08:05,VALID,1001.39,VALID,0,VALID,95.6068,VALID,0,VALID,23.4458,VALID,170,VALID,0.26875,
2012-04-26, 00:09:05,VALID,1001.4,VALID,0,VALID,95.5991,VALID,0,VALID,23.4263,VALID,170,VALID,0.194922,
2012-04-26, 00:10:05,VALID,1001.39,VALID,0,VALID,95.6068,VALID,0,VALID,23.4475,VALID,170,VALID,0,
2012-04-26, 00:11:05,VALID,1001.38,VALID,0,VALID,95.5991,VALID,0,VALID,23.4067,VALID,170,VALID,0,
2012-04-26, 00:12:05,VALID,1001.35,VALID,0,VALID,95.5991,VALID,0,VALID,23.428,VALID,170,VALID,0,
2012-04-26, 00:13:05,VALID,1001.35,VALID,0,VALID,95.6068,VALID,0,VALID,23.4085,VALID,170,VALID,0,
2012-04-26, 00:14:05,VALID,1001.35,VALID,0,VALID,95.6144,VALID,0,VALID,23.389,VALID,170,VALID,0,
2012-04-26, 00:15:05,VALID,1001.32,VALID,0,VALID,95.622,VALID,0,VALID,23.3677,VALID,170,VALID,0,
2012-04-26, 00:16:05,VALID,1001.31,VALID,0,VALID,95.6068,VALID,0,VALID,23.3677,VALID,170,VALID,0,
2012-04-26, 00:17:05,VALID,1001.31,VALID,0,VALID,95.622,VALID,0,VALID,23.3482,VALID,170,VALID,0,
2012-04-26, 00:18:05,VALID,1001.32,VALID,0,VALID,95.622,VALID,0,VALID,23.3482,VALID,170,VALID,0,
2012-04-26, 00:19:05,VALID,1001.32,VALID,0,VALID,95.6373,VALID,0,VALID,23.3305,VALID,169,VALID,0,
2012-04-26, 00:20:05,VALID,1001.31,VALID,0,VALID,95.622,VALID,0,VALID,23.3305,VALID,124,VALID,0,
2012-04-26, 00:21:05,VALID,1001.28,VALID,0,VALID,95.6068,VALID,0,VALID,23.3092,VALID,124,VALID,0,
2012-04-26, 00:22:05,VALID,1001.29,VALID,0,VALID,95.6144,VALID,0,VALID,23.3305,VALID,120,VALID,0.15,
2012-04-26, 00:23:05,VALID,1001.26,VALID,0,VALID,95.6144,VALID,0,VALID,23.311,VALID,115,VALID,0.596875,
2012-04-26, 00:24:05,VALID,1001.24,VALID,0,VALID,95.5991,VALID,0,VALID,23.311,VALID,115,VALID,0.682031,
2012-04-26, 00:25:05,VALID,1001.24,VALID,0,VALID,95.5991,VALID,0,VALID,23.311,VALID,115,VALID,0.677734,
2012-04-26, 00:26:05,VALID,1001.19,VALID,0,VALID,95.6068,VALID,0,VALID,23.311,VALID,115,VALID,0.549609,
2012-04-26, 00:27:05,VALID,1001.2,VALID,0,VALID,95.5839,VALID,0,VALID,23.2915,VALID,115,VALID,0.489453,
2012-04-26, 00:28:05,VALID,1001.21,VALID,0,VALID,95.5839,VALID,0,VALID,23.2719,VALID,115,VALID,0.446875,
2012-04-26, 00:29:05,VALID,1001.2,VALID,0,VALID,95.5915,VALID,0,VALID,23.2312,VALID,115,VALID,0.400391,
2012-04-26, 00:30:05,VALID,1001.2,VALID,0,VALID,95.5915,VALID,0,VALID,23.2117,VALID,115,VALID,0.412891,
2012-04-26, 00:31:05,VALID,1001.19,VALID,0,VALID,95.5991,VALID,0,VALID,23.1921,VALID,115,VALID,0.373047,
2012-04-26, 00:32:05,VALID,1001.19,VALID,0,VALID,95.5915,VALID,0,VALID,23.2329,VALID,115,VALID,0.410547,
2012-04-26, 00:33:05,VALID,1001.16,VALID,0,VALID,95.5839,VALID,0,VALID,23.2329,VALID,115,VALID,0.414844,
2012-04-26, 00:34:05,VALID,1001.17,VALID,0,VALID,95.5915,VALID,0,VALID,23.2117,VALID,115,VALID,0.540625,
2012-04-26, 00:35:05,VALID,1001.15,VALID,0,VALID,95.5991,VALID,0,VALID,23.2134,VALID,120,VALID,0.60625,
2012-04-26, 00:36:05,VALID,1001.13,VALID,0,VALID,95.5915,VALID,0,VALID,23.2134,VALID,131,VALID,0.636328,
2012-04-26, 00:37:05,VALID,1001.12,VALID,0,VALID,95.5839,VALID,0,VALID,23.2134,VALID,131,VALID,0.698438,
2012-04-26, 00:38:05,VALID,1001.07,VALID,0,VALID,95.5839,VALID,0,VALID,23.2134,VALID,131,VALID,0.896094,
2012-04-26, 00:39:05,VALID,1001.09,VALID,0,VALID,95.5686,VALID,0,VALID,23.1921,VALID,131,VALID,0.753125,
2012-04-26, 00:40:05,VALID,1001.07,VALID,0,VALID,95.5686,VALID,0,VALID,23.2134,VALID,131,VALID,0.800391,
2012-04-26, 00:41:05,VALID,1001.08,VALID,0,VALID,95.5534,VALID,0,VALID,23.2134,VALID,131,VALID,0.845312,
2012-04-26, 00:42:05,VALID,1001.02,VALID,0,VALID,95.561,VALID,0,VALID,23.2329,VALID,131,VALID,0.775391,
2012-04-26, 00:43:05,VALID,1001.01,VALID,0,VALID,95.5534,VALID,0,VALID,23.1726,VALID,127,VALID,1.23008,
2012-04-26, 00:44:04,VALID,1001.01,VALID,0,VALID,95.5381,VALID,0,VALID,23.1939,VALID,125,VALID,1.18555,
2012-04-26, 00:45:04,VALID,1000.98,VALID,0,VALID,95.5381,VALID,0,VALID,23.1336,VALID,122,VALID,1.03242,
2012-04-26, 00:46:04,VALID,1001,VALID,0,VALID,95.5076,VALID,0,VALID,23.0946,VALID,112,VALID,0.898047,
2012-04-26, 00:47:04,VALID,1000.97,VALID,0,VALID,95.5152,VALID,0,VALID,23.0946,VALID,108,VALID,0.876172,
2012-04-26, 00:48:04,VALID,1000.96,VALID,0,VALID,95.5228,VALID,0,VALID,23.0964,VALID,108,VALID,0.792969,
2012-04-26, 00:49:04,VALID,1000.97,VALID,0,VALID,95.5076,VALID,0,VALID,23.0751,VALID,108,VALID,0.597266,
2012-04-26, 00:50:04,VALID,1000.99,VALID,0,VALID,95.5152,VALID,0,VALID,23.0556,VALID,108,VALID,0.727734,
2012-04-26, 00:51:04,VALID,1000.96,VALID,0,VALID,95.5228,VALID,0,VALID,23.0769,VALID,108,VALID,0.735156,
2012-04-26, 00:52:04,VALID,1000.99,VALID,0,VALID,95.4923,VALID,0,VALID,23.0573,VALID,108,VALID,0.611328,
2012-04-26, 00:53:04,VALID,1001.01,VALID,0,VALID,95.5076,VALID,0,VALID,23.0573,VALID,108,VALID,0.486719,
2012-04-26, 00:54:04,VALID,1000.97,VALID,0,VALID,95.5152,VALID,0,VALID,23.0573,VALID,108,VALID,0.493359,
2012-04-26, 00:55:04,VALID,1001,VALID,0,VALID,95.5076,VALID,0,VALID,23.0573,VALID,108,VALID,0.307422,
2012-04-26, 00:56:04,VALID,1000.97,VALID,0,VALID,95.4771,VALID,0,VALID,23.0183,VALID,108,VALID,0.148047,
2012-04-26, 00:57:04,VALID,1000.95,VALID,0,VALID,95.5076,VALID,0,VALID,22.9971,VALID,108,VALID,0,
2012-04-26, 00:58:04,VALID,1000.97,VALID,0,VALID,95.5152,VALID,0,VALID,22.9776,VALID,108,VALID,0,
2012-04-26, 00:59:04,VALID,1000.96,VALID,0,VALID,95.5152,VALID,0,VALID,22.9793,VALID,108,VALID,0,
2012-04-26, 01:00:04,VALID,1000.89,VALID,0,VALID,95.5076,VALID,0,VALID,22.9793,VALID,108,VALID,0,
2012-04-26, 01:01:04,VALID,1000.89,VALID,0,VALID,95.5152,VALID,0,VALID,22.9385,VALID,108,VALID,0,
2012-04-26, 01:02:04,VALID,1000.87,VALID,0,VALID,95.5228,VALID,0,VALID,22.9403,VALID,108,VALID,0,
2012-04-26, 01:03:04,VALID,1000.86,VALID,0,VALID,95.5152,VALID,0,VALID,22.9385,VALID,108,VALID,0,
2012-04-26, 01:04:04,VALID,1000.85,VALID,0,VALID,95.5305,VALID,0,VALID,22.9385,VALID,108,VALID,0,
2012-04-26, 01:05:04,VALID,1000.83,VALID,0,VALID,95.5457,VALID,0,VALID,22.9385,VALID,108,VALID,0.0183594,
2012-04-26, 01:06:04,VALID,1000.85,VALID,0,VALID,95.5534,VALID,0,VALID,22.9598,VALID,108,VALID,0,
2012-04-26, 01:07:04,VALID,1000.83,VALID,0,VALID,95.5457,VALID,0,VALID,22.9793,VALID,108,VALID,0,
2012-04-26, 01:08:04,VALID,1000.8,VALID,0,VALID,95.5457,VALID,0,VALID,22.9793,VALID,108,VALID,0,
2012-04-26, 01:09:04,VALID,1000.84,VALID,0,VALID,95.5457,VALID,0,VALID,22.9581,VALID,108,VALID,0.173828,
2012-04-26, 01:10:04,VALID,1000.82,VALID,0,VALID,95.5457,VALID,0,VALID,22.9581,VALID,108,VALID,0.0726563,
2012-04-26, 01:11:04,VALID,1000.8,VALID,0,VALID,95.5686,VALID,0,VALID,22.9581,VALID,108,VALID,0,
2012-04-26, 01:12:04,VALID,1000.82,VALID,0,VALID,95.5839,VALID,0,VALID,22.9385,VALID,108,VALID,0,
2012-04-26, 01:13:04,VALID,1000.77,VALID,0,VALID,95.561,VALID,0,VALID,22.919,VALID,108,VALID,0,
2012-04-26, 01:14:04,VALID,1000.8,VALID,0,VALID,95.5839,VALID,0,VALID,22.919,VALID,108,VALID,0,
2012-04-26, 01:15:04,VALID,1000.78,VALID,0,VALID,95.5686,VALID,0,VALID,22.9403,VALID,108,VALID,0,
2012-04-26, 01:16:04,VALID,1000.77,VALID,0,VALID,95.5762,VALID,0,VALID,22.919,VALID,108,VALID,0,
2012-04-26, 01:17:04,VALID,1000.77,VALID,0,VALID,95.5534,VALID,0,VALID,22.919,VALID,108,VALID,0,
2012-04-26, 01:18:04,VALID,1000.73,VALID,0,VALID,95.5686,VALID,0,VALID,22.9385,VALID,108,VALID,0,
2012-04-26, 01:19:04,VALID,1000.77,VALID,0,VALID,95.5762,VALID,0,VALID,22.919,VALID,108,VALID,0.286719,
2012-04-26, 01:20:04,VALID,1000.74,VALID,0,VALID,95.5915,VALID,0.104696,VALID,22.919,VALID,108,VALID,0.43125,
2012-04-26, 01:21:04,VALID,1000.74,VALID,0,VALID,95.5839,VALID,0,VALID,22.9403,VALID,108,VALID,0.439063,
2012-04-26, 01:22:04,VALID,1000.76,VALID,0,VALID,95.5762,VALID,0,VALID,22.88,VALID,108,VALID,0.434766,
2012-04-26, 01:23:04,VALID,1000.76,VALID,0,VALID,95.5915,VALID,0,VALID,22.8605,VALID,108,VALID,0.486719,
2012-04-26, 01:24:04,VALID,1000.75,VALID,0,VALID,95.5762,VALID,0,VALID,22.8818,VALID,108,VALID,0.384375,
2012-04-26, 01:25:04,VALID,1000.72,VALID,0,VALID,95.5991,VALID,0,VALID,22.9013,VALID,108,VALID,0.233203,
2012-04-26, 01:26:04,VALID,1000.74,VALID,0,VALID,95.6144,VALID,0,VALID,22.841,VALID,108,VALID,0.150781,
2012-04-26, 01:27:04,VALID,1000.77,VALID,0,VALID,95.5991,VALID,0,VALID,22.8623,VALID,108,VALID,0,
2012-04-26, 01:28:04,VALID,1000.72,VALID,0,VALID,95.5991,VALID,0,VALID,22.8623,VALID,108,VALID,0,
2012-04-26, 01:29:04,VALID,1000.72,VALID,0,VALID,95.5991,VALID,0,VALID,22.8215,VALID,108,VALID,0,
2012-04-26, 01:30:04,VALID,1000.74,VALID,0,VALID,95.622,VALID,0.104696,VALID,22.802,VALID,108,VALID,0,
2012-04-26, 01:31:04,VALID,1000.73,VALID,0,VALID,95.6297,VALID,0.104696,VALID,22.7435,VALID,108,VALID,0,
2012-04-26, 01:32:04,VALID,1000.74,VALID,0,VALID,95.6297,VALID,0,VALID,22.7435,VALID,108,VALID,0.43125,
2012-04-26, 01:33:04,VALID,1000.72,VALID,0,VALID,95.6373,VALID,0,VALID,22.724,VALID,108,VALID,0.305859,
2012-04-26, 01:34:04,VALID,1000.68,VALID,0,VALID,95.6297,VALID,0,VALID,22.7045,VALID,108,VALID,0,
2012-04-26, 01:35:04,VALID,1000.69,VALID,0,VALID,95.622,VALID,0,VALID,22.7045,VALID,108,VALID,0,
2012-04-26, 01:36:04,VALID,1000.65,VALID,0,VALID,95.6373,VALID,0,VALID,22.685,VALID,108,VALID,0,
2012-04-26, 01:37:04,VALID,1000.66,VALID,0,VALID,95.6525,VALID,0.104696,VALID,22.685,VALID,108,VALID,0,
2012-04-26, 01:38:04,VALID,1000.62,VALID,0,VALID,95.6449,VALID,0,VALID,22.7062,VALID,108,VALID,0.414063,
2012-04-26, 01:39:04,VALID,1000.62,VALID,0,VALID,95.6373,VALID,0.104696,VALID,22.7045,VALID,108,VALID,0.4125,
2012-04-26, 01:40:04,VALID,1000.56,VALID,0,VALID,95.6144,VALID,0.104696,VALID,22.7452,VALID,108,VALID,0.511328,
2012-04-26, 01:41:04,VALID,1000.59,VALID,0,VALID,95.6297,VALID,0,VALID,22.7435,VALID,95,VALID,0.692969,
2012-04-26, 01:42:04,VALID,1000.59,VALID,0,VALID,95.622,VALID,0.104696,VALID,22.7452,VALID,44,VALID,0.971484,
2012-04-26, 01:43:04,VALID,1000.63,VALID,0,VALID,95.6373,VALID,0,VALID,22.7045,VALID,44,VALID,1.04648,
2012-04-26, 01:44:04,VALID,1000.62,VALID,0,VALID,95.6297,VALID,0,VALID,22.7045,VALID,44,VALID,0.921094,
2012-04-26, 01:45:04,VALID,1000.62,VALID,0,VALID,95.6144,VALID,0,VALID,22.724,VALID,44,VALID,0.871094,
2012-04-26, 01:46:04,VALID,1000.64,VALID,0,VALID,95.6297,VALID,0.104696,VALID,22.724,VALID,44,VALID,0.632813,
2012-04-26, 01:47:04,VALID,1000.65,VALID,0,VALID,95.6373,VALID,0,VALID,22.724,VALID,47,VALID,0.569922,
2012-04-26, 01:48:04,VALID,1000.66,VALID,0,VALID,95.6602,VALID,0,VALID,22.724,VALID,47,VALID,0.551562,
2012-04-26, 01:49:04,VALID,1000.65,VALID,0,VALID,95.6373,VALID,0,VALID,22.7435,VALID,47,VALID,0.336719,
2012-04-26, 01:50:04,VALID,1000.68,VALID,0,VALID,95.6297,VALID,0,VALID,22.7435,VALID,47,VALID,0.0351563,
2012-04-26, 01:51:04,VALID,1000.66,VALID,0,VALID,95.6297,VALID,0,VALID,22.7435,VALID,47,VALID,0,
2012-04-26, 01:52:04,VALID,1000.71,VALID,0,VALID,95.6449,VALID,0,VALID,22.724,VALID,47,VALID,0,
2012-04-26, 01:53:04,VALID,1000.7,VALID,0,VALID,95.6449,VALID,0.104696,VALID,22.7435,VALID,47,VALID,0.126953,
2012-04-26, 01:54:04,VALID,1000.73,VALID,0,VALID,95.6525,VALID,0,VALID,22.724,VALID,47,VALID,0.276563,
2012-04-26, 01:55:04,VALID,1000.71,VALID,0,VALID,95.6297,VALID,0,VALID,22.7452,VALID,47,VALID,0.384375,
2012-04-26, 01:56:04,VALID,1000.69,VALID,0,VALID,95.6297,VALID,0,VALID,22.7435,VALID,47,VALID,0.489844,
2012-04-26, 01:57:04,VALID,1000.74,VALID,0,VALID,95.622,VALID,0,VALID,22.8037,VALID,47,VALID,0.517187,
2012-04-26, 01:58:04,VALID,1000.71,VALID,0,VALID,95.6068,VALID,0,VALID,22.802,VALID,47,VALID,0.639453,
2012-04-26, 01:59:04,VALID,1000.67,VALID,0,VALID,95.6068,VALID,0,VALID,22.841,VALID,47,VALID,0.678125,
2012-04-26, 02:00:04,VALID,1000.64,VALID,0,VALID,95.622,VALID,0,VALID,22.841,VALID,47,VALID,0.582812,
2012-04-26, 02:01:04,VALID,1000.65,VALID,0,VALID,95.6068,VALID,0,VALID,22.8623,VALID,47,VALID,0.46875,
2012-04-26, 02:02:04,VALID,1000.64,VALID,0,VALID,95.622,VALID,0,VALID,22.8623,VALID,47,VALID,0.366797,
2012-04-26, 02:03:04,VALID,1000.63,VALID,0,VALID,95.6449,VALID,0,VALID,22.8427,VALID,47,VALID,0.338281,
2012-04-26, 02:04:04,VALID,1000.65,VALID,0,VALID,95.6449,VALID,0,VALID,22.802,VALID,47,VALID,0.25625,
2012-04-26, 02:05:04,VALID,1000.6,VALID,0,VALID,95.6449,VALID,0,VALID,22.8232,VALID,47,VALID,0.278125,
2012-04-26, 02:06:04,VALID,1000.63,VALID,0,VALID,95.6373,VALID,0,VALID,22.8427,VALID,47,VALID,0.217578,
2012-04-26, 02:07:04,VALID,1000.62,VALID,0,VALID,95.6449,VALID,0,VALID,22.802,VALID,47,VALID,0.228516,
2012-04-26, 02:08:04,VALID,1000.6,VALID,0,VALID,95.6297,VALID,0,VALID,22.8215,VALID,47,VALID,0.255078,
2012-04-26, 02:09:04,VALID,1000.57,VALID,0,VALID,95.6449,VALID,0,VALID,22.8215,VALID,47,VALID,0.312109,
2012-04-26, 02:10:04,VALID,1000.56,VALID,0,VALID,95.6297,VALID,0,VALID,22.8215,VALID,47,VALID,0.308594,
2012-04-26, 02:11:04,VALID,1000.53,VALID,0,VALID,95.6297,VALID,0,VALID,22.8427,VALID,47,VALID,0.256641,
2012-04-26, 02:12:04,VALID,1000.53,VALID,0,VALID,95.6297,VALID,0,VALID,22.8215,VALID,47,VALID,0.201172,
2012-04-26, 02:13:04,VALID,1000.52,VALID,0,VALID,95.6297,VALID,0,VALID,22.8215,VALID,47,VALID,0.196094,
2012-04-26, 02:14:04,VALID,1000.55,VALID,0,VALID,95.6373,VALID,0,VALID,22.8427,VALID,47,VALID,0.154687,
2012-04-26, 02:15:04,VALID,1000.53,VALID,0,VALID,95.6373,VALID,0,VALID,22.8232,VALID,47,VALID,0,
2012-04-26, 02:16:04,VALID,1000.57,VALID,0,VALID,95.6525,VALID,0,VALID,22.8037,VALID,47,VALID,0,
2012-04-26, 02:17:04,VALID,1000.54,VALID,0,VALID,95.6449,VALID,0.104696,VALID,22.7842,VALID,47,VALID,0,
2012-04-26, 02:18:04,VALID,1000.56,VALID,0,VALID,95.6831,VALID,0.104696,VALID,22.763,VALID,47,VALID,0,
2012-04-26, 02:19:04,VALID,1000.55,VALID,0,VALID,95.6678,VALID,0,VALID,22.724,VALID,47,VALID,0,
2012-04-26, 02:20:04,VALID,1000.55,VALID,0,VALID,95.6907,VALID,0,VALID,22.7045,VALID,47,VALID,0,
2012-04-26, 02:21:04,VALID,1000.51,VALID,0,VALID,95.6831,VALID,0.104696,VALID,22.685,VALID,47,VALID,0,
2012-04-26, 02:22:04,VALID,1000.49,VALID,0,VALID,95.6907,VALID,0,VALID,22.685,VALID,47,VALID,0,
2012-04-26, 02:23:04,VALID,1000.45,VALID,0,VALID,95.6831,VALID,0.104696,VALID,22.685,VALID,47,VALID,0,
2012-04-26, 02:24:04,VALID,1000.44,VALID,0,VALID,95.6525,VALID,0,VALID,22.7062,VALID,47,VALID,0,
2012-04-26, 02:25:04,VALID,1000.43,VALID,0,VALID,95.6602,VALID,0,VALID,22.7045,VALID,47,VALID,0,
2012-04-26, 02:26:04,VALID,1000.43,VALID,0,VALID,95.6525,VALID,0,VALID,22.7045,VALID,47,VALID,0,
2012-04-26, 02:27:04,VALID,1000.42,VALID,0,VALID,95.6373,VALID,0,VALID,22.7452,VALID,47,VALID,0.406641,
2012-04-26, 02:28:04,VALID,1000.44,VALID,0,VALID,95.6297,VALID,0,VALID,22.763,VALID,47,VALID,0.392578,
2012-04-26, 02:29:04,VALID,1000.46,VALID,0,VALID,95.6297,VALID,0.104696,VALID,22.7825,VALID,47,VALID,0.310547,
2012-04-26, 02:30:04,VALID,1000.46,VALID,0,VALID,95.6297,VALID,0.104696,VALID,22.7825,VALID,47,VALID,0.196094,
2012-04-26, 02:31:04,VALID,1000.43,VALID,0,VALID,95.5991,VALID,0,VALID,22.7825,VALID,47,VALID,0,
2012-04-26, 02:32:04,VALID,1000.44,VALID,0,VALID,95.6373,VALID,0.104696,VALID,22.7825,VALID,47,VALID,0,
2012-04-26, 02:33:04,VALID,1000.46,VALID,0,VALID,95.6373,VALID,0.104696,VALID,22.7825,VALID,47,VALID,0,
2012-04-26, 02:34:04,VALID,1000.46,VALID,0,VALID,95.6297,VALID,0.104696,VALID,22.7613,VALID,47,VALID,0,
2012-04-26, 02:35:04,VALID,1000.42,VALID,0,VALID,95.6449,VALID,0,VALID,22.7825,VALID,47,VALID,0,
2012-04-26, 02:36:04,VALID,1000.46,VALID,0,VALID,95.6602,VALID,0,VALID,22.7825,VALID,47,VALID,0,
2012-04-26, 02:37:04,VALID,1000.44,VALID,0,VALID,95.6449,VALID,0,VALID,22.8037,VALID,47,VALID,0,
2012-04-26, 02:38:04,VALID,1000.44,VALID,0,VALID,95.6373,VALID,0.104696,VALID,22.7825,VALID,47,VALID,0,
2012-04-26, 02:39:04,VALID,1000.45,VALID,0,VALID,95.6297,VALID,0,VALID,22.8232,VALID,47,VALID,0,
2012-04-26, 02:40:04,VALID,1000.44,VALID,0,VALID,95.6297,VALID,0.104696,VALID,22.8037,VALID,47,VALID,0,
2012-04-26, 02:41:04,VALID,1000.46,VALID,0,VALID,95.6373,VALID,0,VALID,22.7825,VALID,47,VALID,0,
2012-04-26, 02:42:04,VALID,1000.45,VALID,0,VALID,95.6449,VALID,0,VALID,22.7825,VALID,47,VALID,0,
2012-04-26, 02:43:04,VALID,1000.48,VALID,0,VALID,95.6525,VALID,0,VALID,22.7842,VALID,47,VALID,0,
2012-04-26, 02:44:04,VALID,1000.49,VALID,0,VALID,95.6525,VALID,0,VALID,22.763,VALID,47,VALID,0,
2012-04-26, 02:45:04,VALID,1000.49,VALID,0,VALID,95.6297,VALID,0,VALID,22.7842,VALID,47,VALID,0,
2012-04-26, 02:46:04,VALID,1000.51,VALID,0,VALID,95.6602,VALID,0,VALID,22.7842,VALID,47,VALID,0,
2012-04-26, 02:47:04,VALID,1000.51,VALID,0,VALID,95.6373,VALID,0,VALID,22.8037,VALID,47,VALID,0,
2012-04-26, 02:48:04,VALID,1000.52,VALID,0,VALID,95.6297,VALID,0,VALID,22.802,VALID,47,VALID,0,
2012-04-26, 02:49:04,VALID,1000.55,VALID,0,VALID,95.622,VALID,0,VALID,22.8232,VALID,47,VALID,0,
2012-04-26, 02:50:04,VALID,1000.57,VALID,0,VALID,95.6297,VALID,0,VALID,22.802,VALID,47,VALID,0,
2012-04-26, 02:51:04,VALID,1000.59,VALID,0,VALID,95.6144,VALID,0,VALID,22.802,VALID,47,VALID,0,
2012-04-26, 02:52:04,VALID,1000.6,VALID,0,VALID,95.6144,VALID,0,VALID,22.8232,VALID,47,VALID,0,
2012-04-26, 02:53:04,VALID,1000.62,VALID,0,VALID,95.622,VALID,0,VALID,22.8232,VALID,47,VALID,0,
2012-04-26, 02:54:04,VALID,1000.63,VALID,0,VALID,95.6068,VALID,0.104696,VALID,22.8215,VALID,47,VALID,0,
2012-04-26, 02:55:04,VALID,1000.62,VALID,0,VALID,95.6297,VALID,0,VALID,22.802,VALID,47,VALID,0,
2012-04-26, 02:56:04,VALID,1000.59,VALID,0,VALID,95.622,VALID,0,VALID,22.802,VALID,47,VALID,0,
2012-04-26, 02:57:04,VALID,1000.58,VALID,0,VALID,95.6144,VALID,0,VALID,22.802,VALID,47,VALID,0,
2012-04-26, 02:58:04,VALID,1000.56,VALID,0,VALID,95.6373,VALID,0,VALID,22.7825,VALID,47,VALID,0,
2012-04-26, 02:59:04,VALID,1000.59,VALID,0,VALID,95.6449,VALID,0,VALID,22.802,VALID,47,VALID,0,
2012-04-26, 03:00:04,VALID,1000.54,VALID,0,VALID,95.6297,VALID,0,VALID,22.8232,VALID,47,VALID,0,
2012-04-26, 03:01:04,VALID,1000.57,VALID,0,VALID,95.6373,VALID,0.104696,VALID,22.8215,VALID,47,VALID,0,
2012-04-26, 03:02:04,VALID,1000.6,VALID,0,VALID,95.6144,VALID,0,VALID,22.8232,VALID,47,VALID,0,
2012-04-26, 03:03:04,VALID,1000.61,VALID,0,VALID,95.6373,VALID,0,VALID,22.8037,VALID,47,VALID,0,
2012-04-26, 03:04:04,VALID,1000.62,VALID,0,VALID,95.6525,VALID,0,VALID,22.7825,VALID,47,VALID,0,
2012-04-26, 03:05:04,VALID,1000.63,VALID,0,VALID,95.6602,VALID,0,VALID,22.7842,VALID,47,VALID,0,
2012-04-26, 03:06:04,VALID,1000.65,VALID,0,VALID,95.6678,VALID,0,VALID,22.7647,VALID,47,VALID,0,
2012-04-26, 03:07:04,VALID,1000.67,VALID,0,VALID,95.6754,VALID,0,VALID,22.724,VALID,47,VALID,0,
2012-04-26, 03:08:04,VALID,1000.65,VALID,0,VALID,95.6678,VALID,0,VALID,22.724,VALID,47,VALID,0,
2012-04-26, 03:09:04,VALID,1000.73,VALID,0,VALID,95.6678,VALID,0,VALID,22.7452,VALID,47,VALID,0,
2012-04-26, 03:10:04,VALID,1000.73,VALID,0,VALID,95.6831,VALID,0,VALID,22.7257,VALID,47,VALID,0,
2012-04-26, 03:11:04,VALID,1000.73,VALID,0,VALID,95.6602,VALID,0,VALID,22.7452,VALID,47,VALID,0,
2012-04-26, 03:12:04,VALID,1000.75,VALID,0,VALID,95.6754,VALID,0,VALID,22.7257,VALID,47,VALID,0,
2012-04-26, 03:13:04,VALID,1000.73,VALID,0,VALID,95.6602,VALID,0,VALID,22.7452,VALID,47,VALID,0,
2012-04-26, 03:14:04,VALID,1000.74,VALID,0,VALID,95.6525,VALID,0,VALID,22.7435,VALID,47,VALID,0.418359,
2012-04-26, 03:15:04,VALID,1000.69,VALID,0,VALID,95.6602,VALID,0,VALID,22.724,VALID,46,VALID,0.635156,
2012-04-26, 03:16:04,VALID,1000.71,VALID,0,VALID,95.6983,VALID,0,VALID,22.6867,VALID,45,VALID,0.641016,
2012-04-26, 03:17:04,VALID,1000.73,VALID,0,VALID,95.6983,VALID,0,VALID,22.646,VALID,45,VALID,0.632031,
2012-04-26, 03:18:04,VALID,1000.72,VALID,0,VALID,95.6907,VALID,0,VALID,22.6672,VALID,45,VALID,0.651563,
2012-04-26, 03:19:04,VALID,1000.75,VALID,0,VALID,95.6907,VALID,0,VALID,22.6672,VALID,45,VALID,0.642969,
2012-04-26, 03:20:04,VALID,1000.76,VALID,0,VALID,95.6602,VALID,0,VALID,22.6867,VALID,45,VALID,0.719531,
2012-04-26, 03:21:04,VALID,1000.77,VALID,0,VALID,95.6602,VALID,0,VALID,22.6867,VALID,45,VALID,0.79375,
2012-04-26, 03:22:04,VALID,1000.77,VALID,0,VALID,95.6449,VALID,0,VALID,22.7257,VALID,45,VALID,0.642578,
2012-04-26, 03:23:04,VALID,1000.8,VALID,0,VALID,95.6144,VALID,0,VALID,22.724,VALID,45,VALID,0.595703,
2012-04-26, 03:24:04,VALID,1000.77,VALID,0,VALID,95.6068,VALID,0,VALID,22.7647,VALID,45,VALID,0.540234,
2012-04-26, 03:25:04,VALID,1000.77,VALID,0,VALID,95.6297,VALID,0,VALID,22.7452,VALID,45,VALID,0.484375,
2012-04-26, 03:26:04,VALID,1000.82,VALID,0,VALID,95.6449,VALID,0,VALID,22.7452,VALID,45,VALID,0.517187,
2012-04-26, 03:27:04,VALID,1000.79,VALID,0,VALID,95.6373,VALID,0,VALID,22.6655,VALID,45,VALID,0.328125,
2012-04-26, 03:28:04,VALID,1000.85,VALID,0,VALID,95.6373,VALID,0,VALID,22.6867,VALID,45,VALID,0.116406,
2012-04-26, 03:29:04,VALID,1000.85,VALID,0,VALID,95.6602,VALID,0,VALID,22.6672,VALID,45,VALID,0,
2012-04-26, 03:30:04,VALID,1000.85,VALID,0,VALID,95.706,VALID,0,VALID,22.6087,VALID,45,VALID,0,
2012-04-26, 03:31:04,VALID,1000.85,VALID,0,VALID,95.6907,VALID,0,VALID,22.5679,VALID,45,VALID,0.424609,
2012-04-26, 03:32:04,VALID,1000.85,VALID,0,VALID,95.6907,VALID,0,VALID,22.5289,VALID,45,VALID,0.668359,
2012-04-26, 03:33:04,VALID,1000.84,VALID,0,VALID,95.6831,VALID,0,VALID,22.5289,VALID,45,VALID,0.684375,
2012-04-26, 03:34:04,VALID,1000.84,VALID,0,VALID,95.6907,VALID,0,VALID,22.5289,VALID,45,VALID,0.614453,
2012-04-26, 03:35:04,VALID,1000.83,VALID,0,VALID,95.6907,VALID,0,VALID,22.5306,VALID,45,VALID,0.548047,
2012-04-26, 03:36:04,VALID,1000.84,VALID,0,VALID,95.706,VALID,0,VALID,22.4704,VALID,45,VALID,0.641406,
2012-04-26, 03:37:04,VALID,1000.82,VALID,0,VALID,95.6983,VALID,0,VALID,22.4916,VALID,73,VALID,0.722266,
2012-04-26, 03:38:04,VALID,1000.82,VALID,0,VALID,95.6907,VALID,0,VALID,22.4916,VALID,79,VALID,0.732031,
2012-04-26, 03:39:04,VALID,1000.79,VALID,0,VALID,95.6831,VALID,0,VALID,22.4916,VALID,84,VALID,0.810156,
2012-04-26, 03:40:04,VALID,1000.79,VALID,0,VALID,95.6907,VALID,0,VALID,22.4509,VALID,99,VALID,0.73125,
2012-04-26, 03:41:04,VALID,1000.76,VALID,0,VALID,95.6983,VALID,0,VALID,22.4721,VALID,99,VALID,0.673828,
2012-04-26, 03:42:04,VALID,1000.76,VALID,0,VALID,95.6907,VALID,0,VALID,22.4509,VALID,116,VALID,0.856641,
2012-04-26, 03:43:04,VALID,1000.74,VALID,0,VALID,95.6754,VALID,0,VALID,22.4916,VALID,116,VALID,0.792969,
2012-04-26, 03:44:04,VALID,1000.75,VALID,0,VALID,95.6678,VALID,0,VALID,22.4721,VALID,123,VALID,0.871484,
2012-04-26, 03:45:04,VALID,1000.75,VALID,0,VALID,95.6831,VALID,0,VALID,22.4916,VALID,123,VALID,0.817187,
2012-04-26, 03:46:04,VALID,1000.78,VALID,0,VALID,95.6678,VALID,0,VALID,22.5111,VALID,123,VALID,0.836719,
2012-04-26, 03:47:04,VALID,1000.78,VALID,0,VALID,95.6678,VALID,0,VALID,22.5111,VALID,123,VALID,0.71875,
2012-04-26, 03:48:04,VALID,1000.8,VALID,0,VALID,95.6831,VALID,0,VALID,22.5111,VALID,123,VALID,0.6875,
2012-04-26, 03:49:04,VALID,1000.82,VALID,0,VALID,95.6602,VALID,0,VALID,22.5306,VALID,120,VALID,0.582422,
2012-04-26, 03:50:04,VALID,1000.81,VALID,0,VALID,95.6678,VALID,0,VALID,22.5306,VALID,119,VALID,0.488672,